Theta_e
331 330 329 330 329 328 326 325 320 315 316 322 324 330 332 333 330 329 326 325 324 321 321 321 321 322 323 323 322 322 321 320 319 318 316 314 314 313
329 329 328 329 328 329 328 327 325 321 316 323 324 329 332 333 331 329 328 324 322 320 320 319 318 319 319 319 319 319 318 316 315 314 315 314 314 313
328 326 326 328 328 327 328 326 325 324 320 324 328 330 330 331 327 330 327 320 318 318 319 317 316 316 316 316 316 316 315 314 313 313 313 313 313 311
327 325 324 327 326 326 327 325 325 326 323 320 324 327 326 328 325 326 325 322 317 317 316 315 314 313 313 313 313 312 312 311 311 311 311 311 311 308
327 325 324 325 324 325 325 325 326 329 324 322 322 323 323 323 320 324 326 326 322 320 315 314 313 312 311 310 311 310 309 307 306 307 308 309 309 308
328 327 326 326 325 326 326 325 326 326 323 322 322 321 321 324 322 321 319 322 319 316 315 312 312 312 311 310 311 312 308 305 304 303 303 303 304 305
329 330 328 326 324 326 327 324 326 325 324 320 318 319 319 320 319 321 319 319 320 320 311 308 306 305 306 309 310 313 309 305 303 302 302 301 300 301
328 325 321 317 314 313 316 316 322 322 320 320 319 317 317 321 321 320 320 317 315 322 316 313 307 307 307 307 307 305 305 305 303 302 301 300 299 299
326 323 322 322 322 319 309 310 310 310 317 329 322 323 324 324 323 322 320 320 319 321 316 313 318 315 315 313 307 304 303 302 302 301 300 299 298 297
328 326 321 326 322 324 324 323 323 323 324 326 326 327 324 322 328 327 326 325 325 324 323 316 319 317 318 318 309 305 302 300 300 300 299 298 297 296
327 326 329 322 305 306 323 321 321 316 304 302 300 299 297 298 303 319 319 318 315 317 320 319 318 317 317 315 314 305 302 300 299 299 299 298 296 296
323 314 305 317 300 302 323 322 320 320 313 308 311 305 300 306 300 311 312 308 307 306 310 306 305 303 301 307 305 303 301 300 298 298 298 298 296 293
317 317 309 299 297 297 303 320 311 309 312 317 318 321 321 320 314 312 314 311 307 307 310 308 305 305 302 300 300 304 300 300 298 297 297 296 296 295
314 315 307 295 295 296 301 296 298 306 312 314 316 317 319 318 316 319 319 317 316 313 313 310 306 305 302 301 300 302 303 303 301 297 295 296 296 295
314 308 296 295 296 295 293 296 297 310 312 313 315 320 319 317 313 314 313 310 309 311 311 309 308 305 305 301 299 301 301 300 300 299 298 297 299 294
301 299 297 299 300 304 301 296 304 309 312 315 316 314 313 311 308 307 305 305 303 303 307 309 308 308 304 303 302 302 302 298 300 301 300 298 298 300
318 312 312 312 309 310 313 315 315 313 312 318 313 309 306 305 305 305 302 301 300 301 303 305 305 305 306 305 300 299 298 298 300 300 301 297 298 298
312 317 316 315 314 314 315 315 319 316 315 310 306 304 303 302 301 302 302 302 301 300 299 299 300 300 299 301 303 299 298 298 299 300 299 296 296 297
313 315 319 319 320 320 320 317 309 309 307 305 304 302 301 301 301 301 302 300 299 298 299 300 300 298 294 293 298 299 297 297 297 295 296 295 293 295
314 316 317 321 321 315 311 307 306 306 305 304 302 303 303 303 300 299 299 298 298 298 298 299 297 295 293 293 293 296 293 294 292 290 290 292 293 294
311 314 318 318 312 310 306 306 306 304 304 302 302 302 302 300 299 299 299 294 294 296 295 295 296 289 296 295 291 291 293 294 294 291 291 290 290 290
314 318 316 312 308 305 307 305 304 304 303 302 301 301 302 301 299 298 297 297 296 295 294 294 295 294 291 289 287 288 289 291 294 295 295 293 289 287
320 316 310 308 309 308 304 304 301 299 299 299 301 301 301 297 298 299 297 296 295 294 294 292 292 290 288 288 286 288 289 289 291 291 292 295 294 294
Wind_Speed
9 8 9 9 7 9 8 5 5 8 4 1 3 3 4 5 7 6 6 8 8 7 7 7 8 6 7 8 9 10 10 10 8 7 8 10 12 11
6 11 10 7 9 8 7 6 3 6 5 3 2 5 7 7 10 7 9 11 9 8 8 8 8 9 10 9 10 11 11 10 9 9 10 10 11 12
8 9 11 11 8 8 7 5 4 3 7 3 6 7 6 6 6 3 5 6 5 11 11 11 11 10 12 13 12 11 12 12 11 12 11 12 11 12
9 10 10 8 10 9 7 6 5 3 6 9 5 5 4 5 6 5 5 7 8 13 14 13 13 14 14 12 12 12 13 14 13 14 13 12 12 14
11 10 10 10 9 7 8 6 4 4 4 6 6 2 2 4 3 4 5 3 3 12 14 15 14 14 13 12 13 15 15 13 15 14 12 12 12 12
9 10 10 8 10 9 7 6 4 6 5 6 6 5 4 5 4 4 2 2 2 5 10 10 11 11 13 14 14 15 14 14 13 10 10 11 11 12
9 8 8 7 8 8 5 4 4 6 5 5 5 4 4 3 5 4 5 5 6 5 5 5 5 6 7 11 13 18 15 15 12 12 13 12 11 11
8 7 6 9 6 9 8 7 4 6 5 4 5 5 6 6 5 6 5 4 4 6 5 5 6 7 8 8 16 18 18 17 17 18 16 15 14 13
10 11 10 8 8 8 9 11 7 10 5 5 5 4 6 8 6 5 5 4 4 2 4 4 5 8 8 10 18 21 22 21 21 20 18 17 17 14
7 7 8 7 6 7 6 5 4 5 5 4 2 4 4 4 1 3 4 2 3 3 4 6 3 6 4 5 12 17 19 21 22 19 19 19 17 15
8 6 7 7 7 6 7 7 5 2 3 9 8 7 6 7 5 3 2 2 3 3 5 2 4 5 3 2 4 6 12 14 17 19 21 20 18 15
6 6 7 9 9 7 3 6 6 5 5 3 2 1 5 6 7 5 2 1 1 4 4 5 5 5 5 4 3 4 2 7 8 12 18 21 16 5
5 5 4 10 11 9 7 5 3 3 2 3 3 4 5 6 4 3 4 3 0 2 1 4 3 3 2 4 3 4 3 4 4 5 10 13 12 12
7 5 6 10 10 8 7 6 8 5 3 3 2 2 2 6 3 5 5 4 4 3 5 2 2 3 3 4 5 3 5 3 2 4 5 9 16 17
3 9 14 10 9 6 8 5 2 0 2 2 2 3 7 7 8 6 6 6 4 5 3 3 4 4 4 5 5 5 6 4 3 4 4 7 8 6
9 8 8 8 7 4 5 4 3 3 2 2 2 5 5 7 6 3 3 4 3 4 7 7 7 4 4 4 5 8 6 4 3 5 4 3 3 3
9 5 4 4 5 4 4 4 4 4 2 4 6 5 6 4 4 4 3 2 1 3 5 4 6 5 4 6 4 4 4 5 7 7 5 5 4 5
2 4 4 5 6 7 8 7 4 6 5 8 6 5 5 4 3 3 2 2 3 4 5 4 4 4 4 4 7 8 5 5 5 8 6 6 6 4
5 5 5 7 7 6 7 9 9 7 7 7 6 4 3 1 2 3 4 5 4 3 4 4 6 10 10 9 5 8 6 5 9 9 8 7 7 9
5 4 5 5 4 11 10 10 8 8 7 6 4 3 4 3 4 4 3 4 5 4 6 6 7 8 8 10 10 7 8 7 7 10 11 8 7 10
6 5 5 8 10 10 9 9 8 7 5 4 3 4 5 2 3 4 5 7 5 3 4 6 7 8 9 10 8 8 8 6 7 10 8 8 7 7
9 5 9 10 10 10 9 8 8 5 4 4 4 5 4 5 4 4 4 4 4 4 3 3 5 5 6 7 10 12 11 11 10 13 9 8 3 5
7 11 11 11 10 9 8 7 7 6 5 5 3 3 5 4 3 3 4 4 4 4 4 4 4 3 4 6 8 10 13 14 10 8 7 9 14 17
Wind_Direction
90 95 102 113 108 103 123 106 125 139 107 130 134 154 147 132 155 153 154 162 162 175 178 183 192 191 206 188 187 189 192 195 202 211 231 242 244 242
95 104 102 109 101 108 107 96 90 122 121 156 110 138 158 158 175 183 165 163 172 180 191 193 196 200 201 196 199 194 198 200 207 218 232 242 244 242
107 104 109 117 116 109 112 109 125 113 123 139 130 160 174 153 161 198 152 162 176 191 196 198 205 202 205 210 204 204 203 206 210 222 229 234 239 238
126 122 116 114 118 119 121 149 187 179 138 141 140 152 141 134 162 174 183 190 184 196 195 199 204 212 213 213 210 207 210 210 213 221 225 227 229 238
128 130 122 124 134 138 147 180 199 147 154 123 127 128 101 130 167 215 216 225 181 173 196 206 210 212 215 216 217 218 216 215 220 221 225 231 230 235
138 120 125 146 153 173 184 195 190 142 147 138 146 156 159 177 173 183 229 233 185 184 204 205 204 212 218 223 225 229 226 223 228 229 233 236 235 236
135 124 150 175 168 186 194 198 204 156 152 157 158 141 160 157 195 201 194 207 231 189 192 207 201 210 227 235 234 229 222 222 223 227 229 231 234 240
131 135 128 125 142 167 168 120 106 144 187 152 161 166 192 178 187 206 207 202 239 207 202 222 185 215 217 212 215 219 212 213 216 219 218 221 223 226
144 148 157 147 130 115 100 98 96 97 102 98 137 171 171 184 187 196 213 216 235 257 170 256 205 231 208 218 206 208 213 210 216 217 213 216 221 223
143 119 120 123 119 132 134 126 89 65 39 50 66 54 53 25 25 189 196 253 289 272 208 257 234 235 228 223 215 215 214 207 210 213 213 219 221 214
90 91 136 124 127 80 155 156 155 142 83 64 78 94 77 61 61 25 324 281 286 302 16 309 318 324 287 308 352 276 238 214 215 215 217 219 219 215
105 90 56 131 107 66 187 154 154 186 165 159 210 175 197 177 166 168 142 320 332 337 357 50 15 30 340 347 1 360 286 262 276 260 238 230 217 209
140 139 114 114 106 74 58 69 93 303 144 168 228 221 194 200 199 159 165 144 48 273 38 74 4 343 220 296 297 303 231 267 228 251 252 239 212 202
158 158 138 138 126 99 85 95 57 31 13 321 315 310 288 85 108 121 133 74 40 11 342 78 220 219 228 288 284 299 297 290 314 226 225 234 228 224
31 127 125 126 122 109 128 115 96 177 247 262 296 38 53 55 47 45 56 43 22 352 334 255 225 230 217 239 262 275 291 275 263 273 232 237 236 202
101 113 148 158 171 154 137 181 200 224 248 27 22 85 57 47 51 35 42 20 4 308 300 267 255 237 263 252 254 274 269 284 282 274 260 268 287 221
132 136 150 159 179 200 217 174 195 192 140 88 65 55 56 51 32 22 17 354 248 277 297 344 350 310 285 290 4 337 317 310 300 299 303 304 291 275
153 169 179 193 197 197 200 193 138 96 72 83 83 69 57 36 7 316 274 239 276 12 352 317 328 7 337 337 350 330 322 328 347 341 330 335 317 340
199 223 204 199 207 207 99 97 91 79 80 71 74 68 58 346 294 316 355 28 9 339 310 341 14 15 346 329 334 27 354 1 342 337 342 336 323 315
199 225 224 199 89 108 107 106 98 87 82 83 72 26 320 347 29 23 12 6 4 359 4 12 23 3 345 330 329 337 43 20 4 328 318 318 287 296
204 233 235 103 102 97 98 99 104 106 101 120 89 104 77 9 16 22 28 27 21 351 353 20 11 359 352 339 329 331 335 349 324 305 311 314 316 315
204 153 101 101 100 102 102 102 103 84 100 74 60 46 48 66 30 33 19 4 11 10 5 3 7 5 343 340 324 319 317 320 324 295 264 261 275 297
118 114 107 97 101 99 104 108 101 101 96 89 126 112 82 63 11 23 36 19 347 333 333 356 348 345 328 319 314 312 316 314 314 318 309 273 272 267